Spokane Fairchild, WA
on Thursday, November 8, 2012

Thursday
Previous Day Next Day
Daily Summary
 ActualAverage (KGEG)Record (KGEG)
Temperature
Mean Temperature °F 39°F  
Max Temperature 41°F 45°F 60°F (1914)
Min Temperature 26°F 32°F 12°F (1945)
Degree Days
Heating Degree Days 32 26  
Month to date heating degree days 201  
Since 1 July heating degree days 989  
Cooling Degree Days 0 0  
Month to date cooling degree days 0  
Year to date cooling degree days 450  
Moisture
Dew Point 31°F   
Average Humidity 97    
Maximum Humidity 100    
Minimum Humidity 58    
Precipitation
Precipitation 0.10 in 0.08 in 1.41 in (1902)
Month to date precipitation 0.54  
Year to date precipitation 12.50  
Snow
Snow 0.00 in 0.10 in 4.00 in (1985)
Month to date snowfall 0.7  
Since 1 July snowfall 0.8  
Since 1 September snowfall 0.8  
Snow Depth 2.00 in   
Wind
Wind Speed 8 mph   
Max Wind Speed 17 mph   
Max Gust Speed 20 mph   
Visibility 7 miles   
Events Snow   

Key: T is trace of precipitation, MM is missing value
Source: NWS Daily Summary
Time(PST)TemperatureDew PointHumidity Pressure Visibility Wind DirectionWind SpeedGust SpeedPrecipitationEvents Conditions
12:20 AM 32.0°F 32.0°F 100% 29.94 in 10.0 miles ENE 3.5 mph - N/A   Clear
12:49 AM 32.0°F 32.0°F 100% 29.92 in 10.0 miles East 5.8 mph - N/A   Clear
12:55 AM 32.0°F 32.0°F 100% 29.92 in 10.0 miles ENE 4.6 mph - N/A   Clear
12:58 AM 31.1°F 31.1°F 100% 29.97 in 10.0 miles ENE 5.8 mph - 0.00 in   Clear
1:35 AM 32.0°F 32.0°F 100% 29.92 in 10.0 miles North 3.5 mph - N/A   Clear
1:58 AM 31.3°F 31.3°F 100% 29.96 in 10.0 miles NNE 6.9 mph - 0.00 in   Clear
2:00 AM 32.0°F 32.0°F 100% 29.91 in 10.0 miles NNE 6.9 mph - N/A   Clear
2:37 AM 30.2°F 30.2°F 100% 29.89 in 10.0 miles NNE 6.9 mph - N/A   Clear
2:58 AM 30.0°F 30.0°F 100% 29.94 in 10.0 miles NE 8.1 mph - 0.00 in   Clear
3:58 AM 27.7°F 27.7°F 100% 29.93 in 10.0 miles North 1.2 mph - N/A   Clear
4:24 AM 26.6°F 26.6°F 100% 29.86 in 10.0 miles North 4.6 mph - N/A   Clear
4:34 AM 26.6°F 26.6°F 100% 29.85 in 10.0 miles North 4.6 mph - N/A   Clear
4:58 AM 27.7°F 27.7°F 100% 29.91 in 10.0 miles North 5.8 mph - 0.00 in   Clear
5:37 AM 28.4°F 28.4°F 100% 29.83 in 10.0 miles ENE 5.8 mph - N/A   Clear
5:45 AM 28.4°F 28.4°F 100% 29.83 in 10.0 miles NE 2.3 mph - N/A   Clear
5:46 AM 28.4°F 28.4°F 100% 29.82 in 10.0 miles NNE 1.2 mph - N/A   Clear
5:58 AM 27.1°F 27.1°F 100% 29.89 in 10.0 miles NNE 1.2 mph - 0.00 in   Clear
6:08 AM 26.6°F 26.6°F 100% 29.81 in 10.0 miles NNE 2.3 mph - N/A   Clear
6:58 AM 29.7°F 29.7°F 100% 29.85 in 10.0 miles North 6.9 mph - 0.00 in   Clear
7:58 AM 32.5°F 32.5°F 100% 29.83 in 10.0 miles NNE 5.8 mph - N/A   Clear
8:58 AM 34.9°F 34.9°F 100% 29.80 in 10.0 miles NNW 11.5 mph - N/A   Partly Cloudy
9:58 AM 37.2°F 34.2°F 89% 29.78 in 10.0 miles North 12.7 mph - N/A   Clear
10:58 AM 39.4°F 33.3°F 79% 29.76 in 10.0 miles North 15.0 mph - N/A   Mostly Cloudy
11:55 AM 40.8°F 33.1°F 74% 29.73 in 10.0 miles North 12.7 mph - N/A   Scattered Clouds
12:58 PM 41.9°F 30.6°F 64% 29.72 in 10.0 miles North 10.4 mph - N/A   Mostly Cloudy
1:58 PM 41.9°F 28.9°F 60% 29.71 in 10.0 miles North 11.5 mph - N/A   Overcast
2:58 PM 41.2°F 27.5°F 58% 29.73 in 10.0 miles North 10.4 mph - N/A   Overcast
3:25 PM 41.0°F 28.4°F 61% 29.67 in 10.0 miles ENE 16.1 mph 19.6 mph N/A   Overcast
3:58 PM 38.7°F 36.0°F 90% 29.74 in 10.0 miles NNE 17.3 mph - 0.00 in   Overcast
4:08 PM 37.4°F 37.4°F 100% 29.68 in 10.0 miles NE 17.3 mph - N/A Snow Light Snow
4:28 PM 33.8°F 33.8°F 100% 29.69 in 6.0 miles NNE 10.4 mph - N/A Snow Light Snow
4:32 PM 32.0°F 32.0°F 100% 29.69 in 6.0 miles NNE 10.4 mph - N/A Snow Light Snow
4:37 PM 32.0°F 32.0°F 100% 29.69 in 7.0 miles NNE 12.7 mph - N/A Snow Light Snow
4:52 PM 32.0°F 32.0°F 100% 29.68 in 3.0 miles North 9.2 mph - N/A Snow Light Snow
4:58 PM 32.7°F 32.7°F 100% 29.75 in 3.0 miles North 9.2 mph - 0.02 in Snow Light Snow
5:08 PM 32.0°F 32.0°F 100% 29.68 in 4.0 miles North 10.4 mph - N/A Snow Light Snow
5:48 PM 32.0°F 32.0°F 100% 29.69 in 6.0 miles NNW 9.2 mph - N/A Snow Light Snow
5:58 PM 32.0°F 32.0°F 100% 29.77 in 6.0 miles NNW 10.4 mph - 0.02 in Snow Light Snow
6:08 PM 32.0°F 32.0°F 100% 29.68 in 6.0 miles NNW 11.5 mph - N/A Snow Light Snow
6:18 PM 32.0°F 32.0°F 100% 29.69 in 7.0 miles North 10.4 mph - N/A Snow Light Snow
6:19 PM 32.0°F 32.0°F 100% 29.69 in 7.0 miles North 10.4 mph - N/A Snow Light Snow
6:39 PM 32.0°F 32.0°F 100% 29.69 in 5.0 miles North 10.4 mph - N/A Snow Light Snow
6:44 PM 32.0°F 32.0°F 100% 29.69 in 5.0 miles North 10.4 mph - N/A Snow Light Snow
6:58 PM 32.2°F 32.2°F 100% 29.75 in 5.0 miles North 11.5 mph - 0.01 in Snow Light Snow
7:08 PM 32.0°F 32.0°F 100% 29.68 in 5.0 miles North 11.5 mph - N/A Snow Light Snow
7:13 PM 32.0°F 32.0°F 100% 29.68 in 5.0 miles North 11.5 mph - N/A Snow Light Snow
7:23 PM 32.0°F 32.0°F 100% 29.68 in 5.0 miles North 10.4 mph - N/A Snow Light Snow
7:28 PM 32.0°F 32.0°F 100% 29.68 in 5.0 miles North 9.2 mph - N/A Snow Light Snow
7:43 PM 32.0°F 32.0°F 100% 29.68 in 7.0 miles North 10.4 mph - N/A Snow Light Snow
7:53 PM 32.0°F 32.0°F 100% 29.68 in 6.0 miles North 11.5 mph - N/A Snow Light Snow
7:58 PM 32.0°F 32.0°F 100% 29.76 in 6.0 miles North 10.4 mph - 0.01 in Snow Light Snow
8:03 PM 32.0°F 32.0°F 100% 29.69 in 6.0 miles North 11.5 mph - N/A Snow Light Snow
8:13 PM 32.0°F 32.0°F 100% 29.68 in 7.0 miles North 10.4 mph - N/A Snow Light Snow
8:28 PM 32.0°F 32.0°F 100% 29.69 in 10.0 miles North 10.4 mph - N/A Snow Light Snow
8:38 PM 32.0°F 32.0°F 100% 29.69 in 6.0 miles North 10.4 mph - N/A Snow Light Snow
8:43 PM 32.0°F 32.0°F 100% 29.69 in 7.0 miles North 10.4 mph - N/A Snow Light Snow
8:48 PM 32.0°F 32.0°F 100% 29.69 in 8.0 miles North 11.5 mph - N/A Snow Light Snow
8:58 PM 31.8°F 31.8°F 100% 29.75 in 7.0 miles North 11.5 mph - 0.01 in Snow Light Snow
9:08 PM 32.0°F 32.0°F 100% 29.69 in 5.0 miles North 10.4 mph - N/A Snow Light Snow
9:13 PM 32.0°F 32.0°F 100% 29.69 in 5.0 miles North 9.2 mph - N/A Snow Light Snow
9:18 PM 32.0°F 32.0°F 100% 29.69 in 5.0 miles North 9.2 mph - N/A Snow Light Snow
9:33 PM 32.0°F 32.0°F 100% 29.69 in 5.0 miles North 9.2 mph - N/A Snow Light Snow
9:48 PM 32.0°F 32.0°F 100% 29.69 in 5.0 miles North 10.4 mph - N/A Snow Light Snow
9:58 PM 32.0°F 32.0°F 100% 29.75 in 4.0 miles North 10.4 mph - 0.00 in Snow Light Snow
10:08 PM 32.0°F 32.0°F 100% 29.69 in 5.0 miles North 10.4 mph - N/A Snow Light Snow
10:09 PM 32.0°F 32.0°F 100% 29.69 in 5.0 miles North 10.4 mph - N/A Snow Light Snow
10:19 PM 32.0°F 32.0°F 100% 29.69 in 7.0 miles North 9.2 mph - N/A Snow Light Snow
10:29 PM 32.0°F 32.0°F 100% 29.69 in 8.0 miles North 10.4 mph - N/A Snow Light Snow
10:39 PM 32.0°F 32.0°F 100% 29.69 in 6.0 miles North 10.4 mph - N/A Snow Light Snow
10:44 PM 32.0°F 32.0°F 100% 29.69 in 5.0 miles North 9.2 mph - N/A Snow Light Snow
10:49 PM 32.0°F 32.0°F 100% 29.69 in 5.0 miles North 11.5 mph - N/A Snow Light Snow
10:54 PM 32.0°F 32.0°F 100% 29.69 in 4.0 miles North 12.7 mph - N/A Snow Light Snow
10:58 PM 31.3°F 31.3°F 100% 29.75 in 4.0 miles North 10.4 mph - 0.01 in Snow Light Snow
11:18 PM 32.0°F 32.0°F 100% 29.69 in 3.0 miles North 12.7 mph - N/A Snow Light Snow
11:28 PM 32.0°F 32.0°F 100% 29.69 in 2.5 miles North 8.1 mph - N/A Snow Light Snow
11:33 PM 32.0°F 32.0°F 100% 29.69 in 3.0 miles North 8.1 mph - N/A Snow Light Snow
11:38 PM 32.0°F 32.0°F 100% 29.69 in 3.0 miles North 9.2 mph - N/A Snow Light Snow
11:53 PM 32.0°F 32.0°F 100% 29.70 in 4.0 miles North 6.9 mph - N/A Snow Light Snow
11:58 PM 30.9°F 30.9°F 100% 29.70 in 5.0 miles North 8.1 mph - 0.02 in Snow Light Snow
Moon Phase
Nov. 08 Nov. 13 Nov. 20 Nov. 28 Dec. 06
Sunrise:06:46 AM (PST) Moon Rise:12:22 AM (PST)11/8
Sunset:04:22 PM (PST) Moon Set:01:26 PM (PST)11/8

Copyright © 2014 The Weather Underground, Inc.